Wind_Speed
55 54 52 51 49 48 44 41 40 40 40 38 36 35 33 31 29 25 21 20 18 17 16 14 13 12 10 10 9 9 8 8 9 9 10 10 10 11 10 10 11 11 12 12 13 13 14 14 14
56 56 55 54 53 50 45 43 42 42 40 38 37 36 35 32 28 24 23 20 18 18 16 15 13 12 11 10 10 9 9 9 9 10 10 10 10 10 10 11 11 12 12 13 13 14 14 14 15
58 57 57 57 55 51 46 44 44 44 41 39 37 37 36 33 29 25 24 21 19 18 17 15 14 12 11 11 10 10 10 10 10 10 10 11 11 11 11 11 12 12 13 13 14 14 15 15 15
60 60 59 59 56 51 47 47 47 46 43 40 38 38 37 33 29 27 25 23 21 19 18 16 15 13 12 12 11 11 11 11 11 11 11 11 11 12 12 12 13 13 13 14 14 14 15 15 15
60 61 61 60 57 52 49 49 49 48 45 42 41 40 37 34 31 28 26 24 23 21 19 18 16 15 14 13 13 13 13 12 12 12 12 12 12 13 13 13 13 14 14 14 14 15 15 15 15
59 61 62 61 56 52 51 50 51 50 47 45 43 42 39 36 33 30 27 26 24 23 21 19 18 17 16 15 14 14 14 14 14 14 14 14 14 14 14 14 14 15 15 15 15 15 15 15 15
59 60 60 60 57 54 52 52 52 51 49 47 45 43 41 38 34 31 29 28 26 24 23 21 20 19 18 17 16 16 16 16 15 15 15 15 16 16 16 15 15 15 15 15 15 15 16 16 16
58 59 59 60 58 55 52 52 52 52 51 49 48 45 42 40 36 33 31 30 28 26 25 24 23 22 21 20 19 18 18 17 17 17 17 17 17 17 17 16 16 16 16 16 17 17 17 17 17
56 58 59 58 57 54 54 54 53 53 51 51 50 47 44 42 39 35 32 31 30 28 27 26 25 24 23 22 21 20 19 19 18 18 18 18 18 18 18 18 18 18 17 18 18 18 18 18 18
54 56 55 53 54 53 55 56 54 54 53 53 52 49 46 44 41 37 34 33 32 31 29 28 27 26 25 24 23 22 21 20 19 19 18 19 19 19 19 19 19 19 19 19 19 19 20 20 20
51 51 50 51 53 54 55 56 56 55 54 55 53 51 48 46 43 39 37 35 34 33 32 31 30 28 27 26 25 24 23 22 21 20 19 20 20 20 20 20 20 20 20 20 20 21 21 21 22
49 48 48 49 51 53 54 54 55 56 54 54 53 52 50 48 44 41 39 37 36 35 34 33 32 30 29 28 27 26 24 23 22 22 21 21 21 22 22 22 22 22 22 22 22 22 23 24 24
48 47 48 49 50 51 52 53 53 54 54 54 53 53 52 50 47 44 42 39 38 37 36 34 33 32 31 30 28 27 26 25 24 24 23 23 23 23 23 23 23 23 24 24 24 24 24 25 26
47 48 49 50 51 51 51 51 51 51 52 52 52 52 51 49 48 46 43 41 39 38 37 36 35 34 32 31 30 29 28 27 26 26 25 25 25 25 24 24 25 25 25 25 26 26 26 27 28
48 48 49 50 50 50 49 50 49 48 49 49 50 51 51 49 48 46 44 42 41 40 39 38 37 35 34 33 32 31 30 29 28 28 28 27 27 27 26 26 26 27 27 27 28 29 29 30 30
48 49 49 47 47 48 48 48 46 47 48 47 48 49 50 49 47 46 45 44 42 41 40 39 38 37 35 34 33 33 32 31 30 30 29 29 29 28 28 28 28 29 29 29 30 31 32 32 33
47 48 47 45 46 46 47 45 44 45 47 46 46 47 48 48 47 46 46 45 43 42 41 40 39 38 37 36 35 34 33 32 32 31 31 31 31 30 30 30 30 31 31 31 32 33 34 35 36
43 44 44 44 44 45 46 44 44 45 45 45 45 45 46 47 46 46 46 45 44 43 42 41 40 39 38 37 36 35 35 34 33 33 33 33 32 32 32 32 32 33 33 34 34 35 36 37 38
40 41 41 41 41 43 44 44 44 45 46 45 45 45 46 46 46 46 46 46 45 43 42 41 40 39 39 38 37 36 35 35 35 34 34 34 34 34 34 34 34 35 35 36 37 37 38 39 40
39 39 40 40 40 41 43 44 44 46 46 45 45 45 45 45 45 45 45 45 44 44 42 41 40 39 39 38 37 37 37 36 36 36 35 35 36 36 36 36 36 37 38 38 39 40 41 41 42
37 37 38 38 39 40 42 45 45 45 46 47 46 45 45 45 44 44 45 45 45 44 44 43 42 41 40 40 39 39 38 38 37 37 37 38 38 38 38 38 38 39 39 40 41 42 42 43 44
35 34 35 36 38 38 40 42 43 44 45 45 45 45 45 45 44 44 44 45 45 44 43 43 42 41 41 41 40 40 39 39 39 39 39 39 39 39 39 40 40 41 41 42 42 43 43 44 45
32 31 32 34 35 36 38 39 39 41 43 42 43 44 45 45 45 44 45 45 45 45 44 43 43 42 42 41 41 40 40 40 40 40 40 40 40 40 41 41 42 42 43 43 43 44 45 45 46
31 29 29 31 33 35 35 37 37 38 38 38 41 42 43 45 46 45 45 45 45 45 45 45 44 43 43 43 42 42 41 41 41 41 41 41 41 42 42 43 43 43 43 44 44 45 45 46 47
31 29 30 30 32 32 32 34 34 35 36 37 39 41 42 44 45 46 45 45 45 45 45 45 45 44 44 44 44 43 43 42 42 41 41 42 42 43 43 43 43 43 43 44 44 45 46 47 48
30 29 29 29 29 28 29 31 30 32 34 36 38 39 41 42 43 45 45 46 46 45 45 45 45 44 44 44 44 43 43 43 42 42 43 43 43 43 43 43 43 43 43 44 44 45 46 46 47
30 29 27 28 28 28 28 27 27 29 32 34 35 37 39 41 42 43 44 45 46 46 45 44 44 44 43 43 43 43 43 43 43 43 43 43 42 42 42 43 43 43 43 43 44 44 44 45 46
29 28 28 27 26 27 26 25 25 27 30 32 34 35 37 39 41 42 42 43 44 45 45 44 44 44 43 43 43 42 42 42 42 42 42 42 42 42 42 42 42 42 42 43 42 42 43 44 45
27 27 27 26 25 25 25 24 23 25 27 30 33 34 36 37 39 40 41 41 41 42 43 43 42 42 42 42 41 41 41 41 41 41 41 41 41 41 41 41 41 41 41 41 41 41 42 42 43
25 25 25 26 25 24 24 23 22 23 25 28 30 32 34 35 37 38 39 40 40 40 41 41 41 41 41 40 40 40 40 40 40 40 40 40 40 40 40 40 40 39 39 39 40 40 40 40 41
Wind_Direction
218 217 217 216 215 214 212 211 211 212 211 211 212 214 216 220 224 226 222 221 223 225 226 229 232 235 239 245 250 254 260 266 273 279 285 291 296 300 304 308 310 311 312 313 314 314 315 315 313
218 217 216 216 215 213 211 211 212 213 213 212 213 215 217 219 222 227 228 226 226 228 228 229 232 235 240 246 252 256 261 267 273 278 283 288 293 297 301 305 307 309 310 311 311 312 313 312 311
218 217 216 216 215 213 210 211 213 214 213 213 214 217 218 218 218 221 226 229 228 230 230 230 233 236 241 248 254 258 263 267 272 278 283 287 291 295 298 301 304 306 308 309 310 311 311 310 309
218 218 217 217 215 212 210 212 214 216 214 213 214 218 218 217 216 217 221 225 226 229 231 233 235 238 243 249 255 260 264 268 273 277 282 287 291 294 297 299 302 304 306 307 309 309 309 308 307
218 218 218 217 214 211 210 213 215 216 215 214 215 218 219 217 215 216 220 224 226 228 231 235 239 241 244 248 255 260 264 269 273 277 282 286 290 293 297 299 301 303 304 305 306 306 306 305 304
219 219 218 216 214 211 211 213 216 217 216 215 216 218 219 218 216 216 219 224 227 229 233 237 241 243 245 248 252 258 263 267 272 277 282 286 290 293 296 299 301 302 303 304 304 304 303 302 301
221 220 219 217 215 213 212 214 217 218 218 217 217 219 220 220 218 217 221 225 229 232 236 239 242 246 248 250 251 255 261 265 270 275 280 285 290 293 296 299 301 302 302 302 302 302 301 300 299
221 221 219 217 215 213 213 215 217 219 220 219 219 219 220 222 220 219 222 227 231 233 237 241 245 248 251 252 253 255 259 264 269 273 279 284 289 293 295 297 299 300 300 300 299 299 299 298 297
221 221 220 217 216 213 214 217 217 220 220 220 220 220 221 222 222 221 223 227 232 235 238 242 246 249 252 254 255 257 259 263 266 272 277 283 287 290 293 294 296 296 297 297 297 296 296 296 295
221 222 220 218 218 215 216 217 217 218 219 220 220 220 221 222 223 223 224 226 231 235 237 241 245 248 251 254 257 259 261 263 266 270 275 280 284 287 290 291 293 294 294 295 295 294 294 293 291
220 222 219 219 217 216 217 217 217 219 219 220 221 221 222 223 224 225 225 226 230 234 237 240 244 247 250 253 256 260 263 266 268 271 275 279 282 285 287 288 290 291 291 292 292 292 291 290 289
219 218 217 217 217 217 217 218 218 220 221 222 222 222 222 223 225 225 226 227 230 233 237 240 243 246 249 252 256 260 263 267 270 273 276 279 281 284 285 287 287 288 289 289 290 290 289 288 287
218 216 216 217 217 217 217 217 218 221 221 222 223 223 223 224 225 226 226 227 229 231 235 239 242 245 248 252 255 259 263 267 271 274 277 279 281 283 285 286 286 287 288 288 289 289 288 287 286
216 216 216 217 218 218 217 217 218 220 221 222 223 224 224 224 225 226 226 227 228 231 233 237 240 243 247 250 254 258 262 267 271 274 276 279 281 283 284 285 285 285 286 287 288 288 287 286 285
214 215 216 216 216 219 218 218 218 219 221 222 223 224 225 225 225 226 227 228 228 230 233 235 238 242 245 249 253 257 261 265 270 273 275 277 279 281 282 283 284 284 286 287 288 288 287 286 285
213 214 216 216 217 219 220 220 219 220 221 223 224 223 224 224 224 225 227 228 229 231 232 235 237 240 244 247 251 255 259 263 267 270 273 275 277 279 280 281 283 284 285 287 287 287 287 286 286
213 215 216 217 218 220 222 221 220 221 222 222 223 224 224 223 223 225 226 228 230 231 233 235 237 240 243 246 250 254 257 261 265 268 271 273 275 277 279 280 281 282 284 285 286 286 286 286 285
214 217 217 219 220 222 223 222 221 223 224 223 224 224 225 224 224 225 226 228 230 232 234 236 238 241 244 247 250 253 257 260 263 266 269 272 275 277 279 280 281 283 284 285 286 286 286 286 286
211 215 217 218 220 223 223 222 222 224 224 224 224 225 225 225 225 226 227 228 230 232 234 237 239 241 244 247 250 253 256 259 262 265 269 272 274 277 278 280 281 283 284 285 286 286 287 287 286
208 212 214 217 220 223 222 221 221 223 224 224 224 225 226 227 227 227 228 229 231 233 235 237 240 242 245 248 251 254 257 260 263 266 269 271 274 276 278 280 281 283 284 285 286 287 287 287 287
206 210 213 216 220 223 224 223 223 224 225 225 225 225 226 227 228 229 230 231 232 234 236 238 240 243 246 249 252 255 258 261 264 266 268 270 273 276 278 280 282 283 285 286 287 287 288 288 288
204 208 212 215 220 223 225 226 224 225 226 226 226 227 228 229 229 230 231 232 233 235 236 239 241 244 247 250 253 256 258 261 264 266 268 271 273 276 278 280 282 283 285 286 287 288 288 288 289
203 207 212 217 222 225 227 228 225 227 228 228 228 228 229 229 230 231 232 233 234 236 237 239 242 245 248 250 253 256 258 261 263 266 268 270 273 276 278 280 281 283 285 286 287 287 288 289 289
199 204 209 216 222 227 227 230 225 227 228 228 228 228 229 229 230 231 232 234 235 237 238 240 242 245 248 251 254 256 259 261 263 265 267 270 273 275 277 279 280 282 284 285 286 287 289 290 290
196 200 205 211 218 224 227 230 226 224 226 226 226 227 228 229 231 232 233 234 236 237 239 241 243 246 249 252 254 256 259 261 263 265 267 270 272 274 276 278 280 282 283 284 286 288 289 290 291
197 203 208 214 220 224 227 229 226 224 225 225 226 227 228 229 230 232 233 234 236 238 240 242 244 246 249 251 254 256 258 260 262 265 267 270 271 273 275 277 279 281 282 284 286 287 289 290 291
202 207 210 217 222 226 228 229 228 225 225 226 227 228 229 230 231 232 234 235 236 238 240 242 244 246 249 251 253 256 258 260 262 265 267 269 271 273 275 277 279 281 283 284 286 287 289 290 291
205 210 213 217 222 227 229 230 229 225 224 225 226 228 229 230 231 231 233 235 236 238 240 242 243 246 248 250 253 255 257 259 262 264 267 269 271 273 275 277 279 281 283 285 286 287 289 290 291
207 209 214 219 224 229 232 233 231 228 226 227 227 228 228 230 231 232 232 234 235 237 239 241 243 245 247 249 252 255 257 259 262 264 267 269 271 273 275 276 278 281 283 284 285 287 290 291 293
208 209 214 220 227 231 235 236 234 233 231 230 230 230 230 231 232 232 233 234 235 237 239 240 242 244 246 249 251 254 256 259 262 264 266 269 271 273 275 277 279 281 282 284 285 288 290 292 294
Height
5799 5806 5812 5818 5824 5830 5836 5842 5845 5848 5852 5857 5861 5864 5867 5870 5874 5880 5881 5882 5884 5886 5887 5889 5890 5891 5892 5893 5894 5895 5895 5896 5897 5897 5897 5898 5898 5898 5898 5897 5897 5896 5896 5895 5894 5894 5893 5892 5892
5791 5798 5805 5810 5817 5824 5832 5837 5840 5844 5849 5853 5857 5860 5863 5866 5871 5875 5877 5879 5882 5884 5885 5887 5888 5889 5890 5891 5892 5893 5894 5895 5895 5896 5896 5896 5896 5896 5896 5896 5895 5895 5894 5893 5893 5892 5891 5890 5889
5783 5790 5797 5802 5810 5820 5828 5831 5835 5838 5843 5849 5852 5855 5859 5863 5868 5872 5874 5876 5879 5881 5883 5885 5886 5887 5889 5890 5891 5892 5893 5893 5894 5894 5895 5895 5895 5895 5894 5894 5894 5893 5892 5891 5891 5890 5889 5888 5887
5775 5782 5788 5795 5804 5815 5822 5825 5828 5833 5838 5844 5847 5850 5854 5860 5865 5868 5870 5873 5876 5878 5880 5882 5884 5885 5887 5888 5889 5890 5891 5892 5892 5893 5893 5893 5893 5893 5892 5892 5892 5891 5890 5889 5888 5887 5887 5886 5885
5766 5772 5779 5788 5799 5809 5815 5818 5822 5827 5833 5839 5842 5845 5850 5856 5861 5865 5867 5869 5872 5875 5877 5880 5881 5883 5885 5886 5887 5888 5889 5890 5891 5891 5891 5891 5891 5891 5890 5890 5889 5888 5888 5887 5886 5885 5884 5883 5882
5757 5763 5772 5782 5794 5803 5808 5811 5815 5821 5827 5833 5837 5841 5845 5851 5856 5861 5864 5866 5869 5872 5874 5877 5879 5881 5883 5884 5886 5886 5887 5888 5888 5889 5889 5889 5889 5888 5888 5887 5887 5886 5885 5884 5883 5882 5881 5880 5879
5750 5757 5766 5778 5787 5794 5801 5804 5809 5815 5821 5827 5832 5837 5841 5846 5852 5858 5860 5862 5865 5868 5871 5874 5876 5878 5880 5882 5883 5884 5885 5886 5886 5886 5887 5886 5886 5886 5885 5884 5884 5883 5882 5881 5880 5879 5878 5877 5876
5742 5750 5758 5768 5778 5788 5795 5797 5802 5808 5814 5821 5826 5832 5837 5842 5848 5854 5857 5859 5861 5864 5867 5870 5873 5875 5877 5879 5880 5882 5883 5883 5884 5884 5884 5884 5883 5883 5882 5881 5881 5880 5879 5878 5877 5876 5875 5874 5873
5733 5742 5750 5762 5772 5782 5786 5789 5795 5801 5807 5813 5819 5826 5832 5837 5842 5849 5853 5855 5857 5860 5864 5867 5869 5871 5874 5875 5877 5878 5879 5880 5881 5881 5881 5881 5880 5879 5879 5878 5877 5877 5876 5875 5874 5873 5872 5871 5870
5725 5734 5749 5759 5766 5773 5775 5781 5788 5793 5799 5805 5812 5820 5826 5831 5837 5843 5848 5851 5853 5856 5859 5862 5865 5868 5870 5872 5873 5875 5876 5877 5877 5878 5878 5877 5877 5876 5875 5875 5874 5873 5872 5871 5870 5869 5868 5867 5866
5719 5731 5743 5748 5754 5760 5766 5773 5779 5785 5792 5799 5807 5814 5820 5826 5831 5837 5842 5846 5848 5851 5854 5858 5861 5863 5866 5867 5869 5870 5872 5872 5873 5874 5874 5873 5873 5872 5872 5871 5870 5869 5868 5868 5867 5866 5864 5863 5862
5715 5724 5732 5739 5744 5751 5758 5765 5772 5778 5786 5793 5800 5807 5813 5819 5825 5830 5835 5840 5843 5846 5850 5853 5856 5859 5861 5863 5864 5866 5867 5868 5869 5869 5869 5869 5869 5868 5868 5867 5866 5865 5864 5863 5863 5862 5860 5859 5858
5708 5717 5724 5730 5735 5743 5750 5757 5764 5771 5779 5786 5792 5799 5806 5812 5818 5823 5828 5833 5838 5841 5844 5848 5851 5853 5856 5858 5860 5861 5862 5863 5864 5864 5865 5865 5864 5864 5863 5862 5861 5860 5860 5859 5858 5857 5856 5854 5853
5702 5709 5715 5721 5727 5735 5743 5750 5757 5765 5772 5779 5786 5793 5799 5805 5810 5816 5822 5827 5832 5835 5839 5842 5845 5848 5850 5853 5854 5856 5857 5858 5859 5859 5859 5860 5859 5859 5858 5858 5857 5856 5855 5854 5853 5852 5851 5849 5848
5694 5700 5706 5713 5721 5729 5737 5743 5752 5759 5765 5772 5778 5785 5792 5798 5804 5809 5815 5820 5825 5829 5832 5836 5839 5842 5845 5847 5849 5850 5852 5853 5853 5854 5854 5854 5854 5854 5853 5853 5852 5850 5849 5848 5847 5846 5845 5843 5842
5685 5692 5699 5708 5716 5723 5731 5739 5747 5752 5758 5765 5771 5778 5784 5790 5796 5802 5807 5812 5817 5822 5826 5830 5833 5836 5839 5841 5843 5845 5846 5847 5848 5848 5848 5848 5848 5848 5848 5847 5846 5845 5844 5843 5841 5840 5838 5837 5835
5678 5686 5696 5704 5710 5717 5724 5734 5741 5745 5751 5758 5764 5770 5777 5783 5789 5795 5800 5805 5810 5815 5819 5823 5826 5830 5832 5835 5837 5839 5840 5841 5842 5842 5842 5842 5842 5842 5842 5841 5840 5839 5838 5837 5835 5834 5832 5830 5828
5676 5685 5692 5699 5706 5712 5719 5728 5734 5738 5744 5751 5757 5763 5769 5776 5782 5787 5793 5798 5803 5808 5812 5816 5819 5822 5825 5828 5830 5832 5834 5835 5835 5836 5836 5836 5836 5835 5835 5834 5833 5832 5831 5830 5828 5826 5824 5823 5820
5672 5680 5687 5694 5700 5706 5713 5720 5726 5731 5737 5744 5750 5756 5762 5769 5775 5780 5785 5791 5796 5801 5805 5809 5812 5815 5818 5821 5823 5825 5827 5827 5828 5829 5829 5829 5828 5828 5827 5827 5826 5824 5823 5822 5820 5818 5816 5814 5811
5666 5674 5681 5688 5693 5699 5705 5712 5717 5722 5729 5737 5743 5749 5755 5761 5767 5773 5778 5783 5788 5793 5797 5801 5804 5807 5810 5813 5815 5817 5819 5820 5821 5822 5822 5821 5821 5820 5819 5819 5818 5816 5815 5813 5811 5809 5807 5805 5802
5662 5670 5677 5683 5688 5692 5698 5704 5710 5717 5723 5729 5736 5742 5748 5754 5760 5766 5771 5776 5781 5785 5789 5793 5796 5799 5802 5805 5807 5809 5811 5812 5813 5814 5813 5813 5812 5812 5811 5810 5809 5808 5806 5805 5803 5800 5798 5796 5793
5658 5666 5672 5677 5682 5687 5693 5699 5706 5711 5716 5723 5730 5736 5742 5747 5753 5758 5763 5768 5772 5777 5781 5785 5788 5791 5794 5797 5799 5801 5803 5804 5805 5805 5805 5804 5804 5803 5802 5801 5800 5799 5797 5795 5793 5791 5788 5785 5783
5656 5662 5668 5673 5678 5683 5687 5693 5701 5704 5710 5718 5724 5729 5735 5740 5745 5750 5755 5760 5764 5768 5772 5776 5780 5783 5786 5788 5790 5792 5794 5795 5796 5796 5796 5796 5795 5794 5793 5792 5791 5789 5787 5785 5783 5781 5778 5775 5772
5652 5659 5664 5668 5672 5677 5683 5687 5694 5699 5706 5712 5717 5721 5726 5731 5736 5741 5746 5751 5756 5760 5764 5767 5771 5774 5777 5779 5781 5783 5785 5786 5787 5787 5787 5787 5786 5785 5784 5783 5781 5780 5778 5776 5773 5771 5768 5765 5762
5647 5655 5660 5663 5667 5672 5677 5680 5689 5695 5699 5704 5708 5713 5718 5723 5728 5733 5737 5742 5747 5751 5755 5758 5762 5765 5768 5770 5772 5774 5776 5777 5777 5778 5778 5777 5777 5776 5775 5773 5772 5770 5768 5766 5764 5761 5758 5755 5751
5645 5651 5657 5661 5664 5669 5672 5676 5684 5688 5692 5696 5701 5705 5710 5714 5719 5724 5728 5733 5737 5741 5746 5749 5753 5756 5758 5761 5763 5765 5766 5767 5768 5768 5768 5768 5767 5766 5765 5764 5762 5761 5759 5756 5754 5751 5748 5744 5741
5642 5647 5653 5657 5660 5664 5667 5672 5677 5682 5686 5690 5694 5698 5702 5706 5710 5715 5719 5723 5728 5732 5736 5740 5743 5746 5749 5751 5753 5755 5756 5757 5758 5758 5758 5758 5757 5756 5755 5754 5752 5751 5749 5746 5744 5741 5738 5734 5730
5640 5645 5649 5653 5656 5659 5663 5667 5672 5676 5679 5683 5687 5691 5694 5698 5702 5706 5710 5714 5718 5723 5727 5730 5734 5737 5739 5742 5744 5745 5747 5748 5748 5749 5748 5748 5747 5746 5745 5744 5742 5741 5739 5736 5734 5731 5728 5724 5720
5638 5642 5646 5649 5653 5656 5659 5665 5667 5670 5673 5676 5679 5683 5686 5690 5694 5697 5701 5705 5709 5713 5717 5721 5724 5727 5730 5732 5734 5736 5737 5738 5739 5739 5739 5738 5738 5737 5736 5734 5733 5731 5729 5726 5724 5721 5718 5714 5710
5635 5639 5643 5647 5649 5652 5655 5661 5661 5664 5667 5670 5673 5676 5679 5683 5686 5690 5694 5697 5701 5705 5708 5712 5715 5718 5720 5723 5725 5726 5727 5728 5729 5729 5729 5729 5728 5727 5726 5725 5723 5721 5719 5717 5714 5711 5708 5704 5700